Hourly Data Report for May 23, 2004

TORONTO CITY
ONTARIO

43°40'00.000" N
79°24'00.000" W
112.50 m
6158355
71508
XTO

Download Data

Hourly Data (May 2004)
Hourly Data Report for May 23, 2004
TIME
LST
Temp Definition
°C
Dew Point Definition
°C
Rel Hum Definition
%
Precip. Amount Definition
mm

Wind Dir Definition
10's deg

Wind Spd Definition
km/h
Visibility Definition
km
Stn Press Definition
kPa
Hmdx Definition


Wind Chill Definition


Weather Definition


00:00 12.2 11.9 98   LegendMM LegendMM LegendMM 99.47     LegendNANA
01:00 11.9 11.5 97   LegendMM LegendMM LegendMM 99.48     LegendNANA
02:00 11.8 11.5 98   LegendMM LegendMM LegendMM 99.47     LegendNANA
03:00 12.1 11.8 98   LegendMM LegendMM LegendMM 99.51     LegendNANA
04:00 11.8 11.6 99   LegendMM LegendMM LegendMM 99.59     LegendNANA
05:00 12.1 11.9 99   LegendMM LegendMM LegendMM 99.66     LegendNANA
06:00 12.8 12.8 100   LegendMM LegendMM LegendMM 99.77     LegendNANA
07:00 12.8 12.5 98   LegendMM LegendMM LegendMM 99.85     LegendNANA
08:00 13.0 12.5 97   LegendMM LegendMM LegendMM 99.88     LegendNANA
09:00 11.7 11.3 97   LegendMM LegendMM LegendMM 99.83     LegendNANA
10:00 11.2 10.9 98   LegendMM LegendMM LegendMM 99.86     LegendNANA
11:00 12.4 12.0 97   LegendMM LegendMM LegendMM 99.86     LegendNANA
12:00 12.9 11.6 92   LegendMM LegendMM LegendMM 99.84     LegendNANA
13:00 13.2 11.5 89   LegendMM LegendMM LegendMM 99.86     LegendNANA
14:00 12.8 11.7 93   LegendMM LegendMM LegendMM 99.69     LegendNANA
15:00 12.3 11.9 97   LegendMM LegendMM LegendMM 99.62     LegendNANA
16:00 12.1 11.7 97   LegendMM LegendMM LegendMM 99.52     LegendNANA
17:00 12.1 11.6 97   LegendMM LegendMM LegendMM 99.52     LegendNANA
18:00 12.3 11.7 96   LegendMM LegendMM LegendMM 99.49     LegendNANA
19:00 12.8 12.1 96   LegendMM LegendMM LegendMM 99.46     LegendNANA
20:00 12.8 12.2 96   LegendMM LegendMM LegendMM 99.45     LegendNANA
21:00 13.0 12.7 98   LegendMM LegendMM LegendMM 99.46     LegendNANA
22:00 14.1 13.7 97   LegendMM LegendMM LegendMM 99.45     LegendNANA
23:00 13.9 13.4 97   LegendMM LegendMM LegendMM 99.38     LegendNANA

Notes on Data Quality.

Legend

  • E = Estimated
  • M = Missing
  • NA = Not Available*
  • [empty] = Indicates an unobserved value
Date modified: